Location: Godiavel Galaoual
(15.2485°N, 12.6604°W)
Time: 00:32:32
(UTC+00:00)

Explorer 7 - Pass Details

Date: 14 June 2021
Orbit: 484 x 676 km, 50.3° (Epoch: 29 July)

Event Time Altitude Azimuth Distance (km) Brightness Sun altitude
Rises 20:03:25 0° 176° (S) 2,966 10.2 -9.8°
Enters shadow 20:06:37 - 152° (SSE) 2,195 9.4 -10.5°
Reaches altitude 10° 20:07:22 10° 144° (SE) 2,084 - -10.7°
Maximum altitude 20:09:00 12° 124° (SE) 1,984 - -11.0°
Drops below altitude 10° 20:10:39 10° 104° (ESE) 2,097 - -11.4°
Sets 20:14:39 0° 72° (ENE) 3,015 - -12.2°
